Time,TemperatureF,DewpointF,PressureIn,WindDirection,WindDirectionDegrees,WindSpeedMPH,WindSpeedGustMPH,Humidity,HourlyPrecipIn,Conditions,Clouds,dailyrainin,SoftwareType,DateUTC
2013-12-06 00:01:00,50.9,51.6,29.88,SW,225,24.7,24.7,102,-99.99,,,-99.99,tws,2013-12-06 05:01:00,
2013-12-06 00:02:00,51.0,51.7,29.88,SSE,157,21.9,21.9,102,-99.99,,,-99.99,tws,2013-12-06 05:02:00,
2013-12-06 00:03:00,50.9,51.5,29.89,SW,225,19.6,19.6,102,-99.99,,,-99.99,tws,2013-12-06 05:03:00,
2013-12-06 00:04:00,50.9,51.5,29.89,SSE,157,13.2,13.2,102,-99.99,,,-99.99,tws,2013-12-06 05:04:00,
2013-12-06 00:08:00,50.9,51.6,29.88,SSW,202,20.1,20.1,102,-99.99,,,-99.99,tws,2013-12-06 05:08:00,
2013-12-06 00:13:00,50.9,51.6,29.88,South,180,15.8,15.8,102,-99.99,,,-99.99,tws,2013-12-06 05:13:00,
2013-12-06 00:18:00,50.9,51.6,29.87,South,180,22.3,22.3,102,-99.99,,,-99.99,tws,2013-12-06 05:18:00,
2013-12-06 00:23:00,51.0,51.7,29.87,WSW,247,18.3,18.3,102,-99.99,,,-99.99,tws,2013-12-06 05:23:00,
2013-12-06 00:27:00,51.2,51.9,29.87,South,180,22.4,22.4,102,-99.99,,,-99.99,tws,2013-12-06 05:27:00,
2013-12-06 00:32:00,51.2,51.9,29.87,South,180,21.8,21.8,102,-99.99,,,-99.99,tws,2013-12-06 05:32:00,
2013-12-06 00:38:00,51.4,52.1,29.87,South,180,17.7,17.7,102,-99.99,,,-99.99,tws,2013-12-06 05:38:00,
2013-12-06 00:43:00,51.5,52.2,29.87,South,180,18.6,18.6,102,-99.99,,,-99.99,tws,2013-12-06 05:43:00,
2013-12-06 00:48:00,51.5,52.1,29.88,South,180,16.3,16.3,102,-99.99,,,-99.99,tws,2013-12-06 05:48:00,
2013-12-06 00:53:00,51.5,52.1,29.87,South,180,17.8,17.8,102,-99.99,,,-99.99,tws,2013-12-06 05:53:00,
2013-12-06 00:58:00,51.6,52.2,29.87,SSW,202,18.2,18.2,102,-99.99,,,-99.99,tws,2013-12-06 05:58:00,
2013-12-06 01:03:00,51.7,52.3,29.87,South,180,16.1,16.1,102,-99.99,,,-99.99,tws,2013-12-06 06:03:00,
2013-12-06 01:08:00,51.7,52.3,29.87,SSE,157,14.5,14.5,102,-99.99,,,-99.99,tws,2013-12-06 06:08:00,
2013-12-06 01:13:00,51.6,52.3,29.86,South,180,12.9,12.9,102,-99.99,,,-99.99,tws,2013-12-06 06:13:00,
2013-12-06 01:18:00,51.8,52.5,29.86,SSW,202,11.1,11.1,102,-99.99,,,-99.99,tws,2013-12-06 06:18:00,
2013-12-06 01:23:00,51.7,52.4,29.86,SSW,202,9.4,9.4,102,-99.99,,,-99.99,tws,2013-12-06 06:23:00,
2013-12-06 01:28:00,51.9,52.7,29.86,South,180,12.9,12.9,102,-99.99,,,-99.99,tws,2013-12-06 06:28:00,
2013-12-06 01:33:00,51.8,52.6,29.86,SSE,157,12.9,12.9,102,-99.99,,,-99.99,tws,2013-12-06 06:33:00,
2013-12-06 01:38:00,51.9,52.7,29.86,South,180,13.3,13.3,102,-99.99,,,-99.99,tws,2013-12-06 06:38:00,
2013-12-06 01:43:00,51.8,52.6,29.85,SSE,157,11.7,11.7,103,-99.99,,,-99.99,tws,2013-12-06 06:43:00,
2013-12-06 01:48:00,51.9,52.7,29.85,SSE,157,15.6,15.6,103,-99.99,,,-99.99,tws,2013-12-06 06:48:00,
2013-12-06 01:53:00,51.9,52.7,29.85,SSE,157,10.6,10.6,103,-99.99,,,-99.99,tws,2013-12-06 06:53:00,
2013-12-06 01:58:00,51.9,52.7,29.83,South,180,12.4,12.4,103,-99.99,,,-99.99,tws,2013-12-06 06:58:00,
2013-12-06 02:03:00,52.2,53.0,29.84,South,180,13.5,13.5,103,-99.99,,,-99.99,tws,2013-12-06 07:03:00,
2013-12-06 02:08:00,52.3,53.0,29.86,SW,225,5.5,5.5,102,-99.99,,,-99.99,tws,2013-12-06 07:08:00,
2013-12-06 02:13:00,52.4,53.1,29.86,SW,225,3.2,3.2,102,-99.99,,,-99.99,tws,2013-12-06 07:13:00,
2013-12-06 02:18:00,52.4,53.1,29.87,WSW,247,6.7,6.7,102,-99.99,,,-99.99,tws,2013-12-06 07:18:00,
2013-12-06 02:23:00,52.2,52.8,29.87,NW,315,7.2,7.2,102,-99.99,,,-99.99,tws,2013-12-06 07:23:00,
2013-12-06 02:28:00,52.0,52.7,29.88,NW,315,8.7,8.7,102,-99.99,,,-99.99,tws,2013-12-06 07:28:00,
2013-12-06 02:33:00,51.5,52.2,29.88,North,360,7.2,7.2,102,-99.99,,,-99.99,tws,2013-12-06 07:33:00,
2013-12-06 02:38:00,50.6,51.3,29.88,North,360,7.8,7.8,102,-99.99,,,-99.99,tws,2013-12-06 07:38:00,
2013-12-06 02:43:00,50.6,51.4,29.87,North,360,6.1,6.1,103,-99.99,,,-99.99,tws,2013-12-06 07:43:00,
2013-12-06 02:48:00,50.6,51.4,29.89,NNW,337,7.8,7.8,103,-99.99,,,-99.99,tws,2013-12-06 07:48:00,
2013-12-06 02:53:00,50.2,51.1,29.90,North,360,7.5,7.5,103,-99.99,,,-99.99,tws,2013-12-06 07:53:00,
2013-12-06 02:58:00,50.0,50.8,29.90,NNE,22,8.4,8.4,102,-99.99,,,-99.99,tws,2013-12-06 07:58:00,
2013-12-06 03:03:00,49.2,50.0,29.91,NNW,337,19.5,19.5,102,-99.99,,,-99.99,tws,2013-12-06 08:03:00,
2013-12-06 03:08:00,48.3,48.5,29.91,NE,45,19.4,19.4,100,-99.99,,,-99.99,tws,2013-12-06 08:08:00,
2013-12-06 03:13:00,47.3,47.0,29.89,ESE,112,18.5,18.5,98,-99.99,,,-99.99,tws,2013-12-06 08:13:00,
2013-12-06 03:18:00,46.9,46.6,29.90,NNE,22,15.4,15.4,98,-99.99,,,-99.99,tws,2013-12-06 08:18:00,
2013-12-06 03:23:00,46.2,45.9,29.90,ENE,67,18.2,18.2,98,-99.99,,,-99.99,tws,2013-12-06 08:23:00,
2013-12-06 03:28:00,46.0,45.8,29.91,NE,45,17.8,17.8,99,-99.99,,,-99.99,tws,2013-12-06 08:28:00,
2013-12-06 03:33:00,45.5,45.4,29.91,NNE,22,20.1,20.1,99,-99.99,,,-99.99,tws,2013-12-06 08:33:00,
2013-12-06 03:38:00,45.6,45.6,29.91,NE,45,14.4,14.4,100,-99.99,,,-99.99,tws,2013-12-06 08:38:00,
2013-12-06 03:43:00,45.7,45.8,29.91,ENE,67,13.5,13.5,100,-99.99,,,-99.99,tws,2013-12-06 08:43:00,
2013-12-06 03:48:00,45.0,44.9,29.91,NNE,22,20.4,20.4,99,-99.99,,,-99.99,tws,2013-12-06 08:48:00,
2013-12-06 03:53:00,44.6,44.3,29.91,North,360,27.1,27.1,98,-99.99,,,-99.99,tws,2013-12-06 08:53:00,
2013-12-06 03:58:00,44.1,43.7,29.93,NNE,22,26.9,26.9,98,-99.99,,,-99.99,tws,2013-12-06 08:58:00,
2013-12-06 04:03:00,44.0,43.5,29.93,NNW,337,18.2,18.2,98,-99.99,,,-99.99,tws,2013-12-06 09:03:00,
2013-12-06 04:08:00,43.4,42.8,29.93,NNE,22,17.5,17.5,97,-99.99,,,-99.99,tws,2013-12-06 09:08:00,
2013-12-06 04:13:00,43.3,42.7,29.94,NNE,22,27.5,27.5,97,-99.99,,,-99.99,tws,2013-12-06 09:13:00,
2013-12-06 04:18:00,43.2,42.7,29.94,NE,45,15.7,15.7,98,-99.99,,,-99.99,tws,2013-12-06 09:18:00,
2013-12-06 04:23:00,42.9,42.4,29.93,NNE,22,24.0,24.0,98,-99.99,,,-99.99,tws,2013-12-06 09:23:00,
2013-12-06 04:28:00,42.9,42.6,29.93,NNE,22,19.3,19.3,98,-99.99,,,-99.99,tws,2013-12-06 09:28:00,
2013-12-06 04:33:00,42.9,42.6,29.93,NNE,22,19.6,19.6,98,-99.99,,,-99.99,tws,2013-12-06 09:33:00,
2013-12-06 04:38:00,42.5,42.1,29.93,ENE,67,24.5,24.5,98,-99.99,,,-99.99,tws,2013-12-06 09:38:00,
2013-12-06 04:43:00,42.5,42.0,29.94,NE,45,19.4,19.4,98,-99.99,,,-99.99,tws,2013-12-06 09:43:00,
2013-12-06 04:48:00,42.2,41.6,29.94,NE,45,24.5,24.5,98,-99.99,,,-99.99,tws,2013-12-06 09:48:00,
2013-12-06 04:53:00,42.3,41.8,29.95,NE,45,21.6,21.6,98,-99.99,,,-99.99,tws,2013-12-06 09:53:00,
2013-12-06 04:58:00,41.9,41.5,29.94,NNE,22,24.4,24.4,98,-99.99,,,-99.99,tws,2013-12-06 09:58:00,
2013-12-06 05:03:00,41.9,41.5,29.93,North,0,19.8,19.8,98,-99.99,,,-99.99,tws,2013-12-06 10:03:00,
2013-12-06 05:08:00,41.8,41.4,29.93,ENE,67,18.4,18.4,98,-99.99,,,-99.99,tws,2013-12-06 10:08:00,
2013-12-06 05:13:00,41.6,41.2,29.93,NE,45,16.9,16.9,98,-99.99,,,-99.99,tws,2013-12-06 10:13:00,
2013-12-06 05:18:00,41.1,40.9,29.94,NE,45,22.9,22.9,98,-99.99,,,-99.99,tws,2013-12-06 10:18:00,
2013-12-06 05:23:00,40.8,40.1,29.94,NNE,22,23.7,23.7,97,-99.99,,,-99.99,tws,2013-12-06 10:23:00,
2013-12-06 05:28:00,40.8,40.5,29.95,ENE,67,18.6,18.6,98,-99.99,,,-99.99,tws,2013-12-06 10:28:00,
2013-12-06 05:33:00,40.6,40.1,29.95,North,0,22.0,22.0,98,-99.99,,,-99.99,tws,2013-12-06 10:33:00,
2013-12-06 05:38:00,40.2,39.8,29.95,NNE,22,20.1,20.1,98,-99.99,,,-99.99,tws,2013-12-06 10:38:00,
2013-12-06 05:43:00,40.3,39.9,29.95,NE,45,13.8,13.8,98,-99.99,,,-99.99,tws,2013-12-06 10:43:00,
2013-12-06 05:48:00,40.2,39.7,29.95,NNE,22,13.2,13.2,98,-99.99,,,-99.99,tws,2013-12-06 10:48:00,
2013-12-06 05:53:00,40.0,39.4,29.95,NNE,22,15.9,15.9,97,-99.99,,,-99.99,tws,2013-12-06 10:53:00,
2013-12-06 05:58:00,39.7,38.8,29.95,NNE,22,23.0,23.0,96,-99.99,,,-99.99,tws,2013-12-06 10:58:00,
2013-12-06 06:03:00,39.8,39.3,29.97,NNE,22,18.7,18.7,98,-99.99,,,-99.99,tws,2013-12-06 11:03:00,
2013-12-06 06:08:00,39.5,39.1,29.97,NNE,22,18.2,18.2,98,-99.99,,,-99.99,tws,2013-12-06 11:08:00,
2013-12-06 06:13:00,39.5,39.1,29.98,NNE,22,15.7,15.7,98,-99.99,,,-99.99,tws,2013-12-06 11:13:00,
2013-12-06 06:18:00,39.3,39.1,29.98,NNE,22,14.9,14.9,99,-99.99,,,-99.99,tws,2013-12-06 11:18:00,
2013-12-06 06:23:00,39.1,38.9,29.98,NE,45,20.8,20.8,99,-99.99,,,-99.99,tws,2013-12-06 11:23:00,
2013-12-06 06:28:00,39.0,38.9,29.98,NE,45,18.0,18.0,99,-99.99,,,-99.99,tws,2013-12-06 11:28:00,
2013-12-06 06:33:00,39.0,38.9,29.98,NNE,22,25.2,25.2,99,-99.99,,,-99.99,tws,2013-12-06 11:33:00,
2013-12-06 06:38:00,39.0,38.9,29.98,NNE,22,17.5,17.5,99,-99.99,,,-99.99,tws,2013-12-06 11:38:00,
2013-12-06 06:43:00,38.9,38.8,29.98,ENE,67,19.5,19.5,99,-99.99,,,-99.99,tws,2013-12-06 11:43:00,
2013-12-06 06:48:00,38.8,38.6,29.98,NNE,22,25.5,25.5,99,-99.99,,,-99.99,tws,2013-12-06 11:48:00,
2013-12-06 06:53:00,38.9,38.7,29.99,ENE,67,17.1,17.1,99,-99.99,,,-99.99,tws,2013-12-06 11:53:00,
2013-12-06 06:58:00,38.8,38.6,30.00,NNE,22,22.3,22.3,99,-99.99,,,-99.99,tws,2013-12-06 11:58:00,
2013-12-06 07:03:00,39.0,38.7,30.01,NNE,22,14.3,14.3,98,-99.99,,,-99.99,tws,2013-12-06 12:03:00,
2013-12-06 07:08:00,38.7,38.4,30.00,NE,45,19.2,19.2,99,-99.99,,,-99.99,tws,2013-12-06 12:08:00,
2013-12-06 07:13:00,38.5,38.3,30.00,NE,45,20.0,20.0,99,-99.99,,,-99.99,tws,2013-12-06 12:13:00,
2013-12-06 07:18:00,38.5,38.3,30.00,NNE,22,22.0,22.0,99,-99.99,,,-99.99,tws,2013-12-06 12:18:00,
2013-12-06 07:23:00,38.4,38.3,30.00,NE,45,16.4,16.4,99,-99.99,,,-99.99,tws,2013-12-06 12:23:00,
2013-12-06 07:28:00,38.5,38.3,30.01,ENE,67,17.8,17.8,99,-99.99,,,-99.99,tws,2013-12-06 12:28:00,
2013-12-06 07:33:00,38.5,38.4,30.02,NNE,22,14.0,14.0,99,-99.99,,,-99.99,tws,2013-12-06 12:33:00,
2013-12-06 07:38:00,38.7,38.4,30.01,ENE,67,19.6,19.6,99,-99.99,,,-99.99,tws,2013-12-06 12:38:00,
2013-12-06 07:43:00,38.5,38.3,30.02,NNE,22,16.4,16.4,99,-99.99,,,-99.99,tws,2013-12-06 12:43:00,
2013-12-06 07:48:00,38.5,38.3,30.02,North,0,20.1,20.1,99,-99.99,,,-99.99,tws,2013-12-06 12:48:00,
2013-12-06 07:53:00,38.7,38.1,30.02,NNE,22,18.4,18.4,97,-99.99,,,-99.99,tws,2013-12-06 12:53:00,
2013-12-06 07:58:00,38.7,38.4,30.03,NE,45,17.1,17.1,98,-99.99,,,-99.99,tws,2013-12-06 12:58:00,
2013-12-06 08:04:00,38.7,38.4,30.04,NNE,22,14.2,14.2,99,-99.99,,,-99.99,tws,2013-12-06 13:04:00,
2013-12-06 08:09:00,38.7,38.4,30.04,NNE,22,13.4,13.4,98,-99.99,,,-99.99,tws,2013-12-06 13:09:00,
2013-12-06 08:14:00,39.1,38.8,30.03,NE,45,12.2,12.2,98,-99.99,,,-99.99,tws,2013-12-06 13:14:00,
2013-12-06 08:19:00,38.5,38.1,30.03,NNE,22,20.3,20.3,98,-99.99,,,-99.99,tws,2013-12-06 13:19:00,
2013-12-06 08:24:00,38.7,38.2,30.04,NNE,22,19.5,19.5,98,-99.99,,,-99.99,tws,2013-12-06 13:24:00,
2013-12-06 08:29:00,38.8,38.2,30.03,NE,45,14.3,14.3,97,-99.99,,,-99.99,tws,2013-12-06 13:29:00,
2013-12-06 08:34:00,38.7,38.0,30.03,North,360,14.9,14.9,97,-99.99,,,-99.99,tws,2013-12-06 13:34:00,
2013-12-06 08:39:00,38.5,37.9,30.03,NE,45,19.0,19.0,97,-99.99,,,-99.99,tws,2013-12-06 13:39:00,
2013-12-06 08:44:00,38.5,37.9,30.03,NNE,22,15.4,15.4,97,-99.99,,,-99.99,tws,2013-12-06 13:44:00,
2013-12-06 08:49:00,38.4,37.7,30.04,NNE,22,17.6,17.6,97,-99.99,,,-99.99,tws,2013-12-06 13:49:00,
2013-12-06 08:54:00,38.7,37.9,30.04,ENE,67,15.5,15.5,97,-99.99,,,-99.99,tws,2013-12-06 13:54:00,
2013-12-06 08:59:00,39.0,38.2,30.04,NNE,22,15.8,15.8,96,-99.99,,,-99.99,tws,2013-12-06 13:59:00,
2013-12-06 09:04:00,39.2,38.4,30.02,NE,45,13.1,13.1,96,-99.99,,,-99.99,tws,2013-12-06 14:04:00,
2013-12-06 09:09:00,39.0,38.1,30.03,NE,45,17.5,17.5,96,-99.99,,,-99.99,tws,2013-12-06 14:09:00,
2013-12-06 09:14:00,39.1,38.2,30.03,NE,45,12.2,12.2,96,-99.99,,,-99.99,tws,2013-12-06 14:14:00,
2013-12-06 09:19:00,39.5,38.5,30.04,NE,45,10.2,10.2,96,-99.99,,,-99.99,tws,2013-12-06 14:19:00,
2013-12-06 09:24:00,39.6,38.6,30.04,NNE,22,10.9,10.9,96,-99.99,,,-99.99,tws,2013-12-06 14:24:00,
2013-12-06 09:29:00,39.3,38.1,30.05,NNE,22,13.2,13.2,95,-99.99,,,-99.99,tws,2013-12-06 14:29:00,
2013-12-06 09:34:00,39.5,38.2,30.06,NE,45,12.8,12.8,95,-99.99,,,-99.99,tws,2013-12-06 14:34:00,
2013-12-06 09:39:00,39.3,37.8,30.05,NNE,22,11.5,11.5,94,-99.99,,,-99.99,tws,2013-12-06 14:39:00,
2013-12-06 09:44:00,39.1,37.6,30.05,NNE,22,14.5,14.5,94,-99.99,,,-99.99,tws,2013-12-06 14:44:00,
2013-12-06 09:49:00,39.5,37.8,30.05,NNE,22,12.8,12.8,93,-99.99,,,-99.99,tws,2013-12-06 14:49:00,
2013-12-06 09:54:00,39.5,37.7,30.05,NNE,22,14.8,14.8,93,-99.99,,,-99.99,tws,2013-12-06 14:54:00,
2013-12-06 09:59:00,39.5,37.6,30.05,North,0,16.4,16.4,93,-99.99,,,-99.99,tws,2013-12-06 14:59:00,
2013-12-06 10:04:00,39.5,37.8,30.04,NNE,22,15.0,15.0,93,-99.99,,,-99.99,tws,2013-12-06 15:04:00,
2013-12-06 10:09:00,40.0,38.3,30.04,NE,45,10.2,10.2,93,-99.99,,,-99.99,tws,2013-12-06 15:09:00,
2013-12-06 10:14:00,39.7,38.0,30.02,East,90,11.0,11.0,93,-99.99,,,-99.99,tws,2013-12-06 15:14:00,
2013-12-06 10:19:00,39.5,37.6,30.02,NE,45,15.1,15.1,93,-99.99,,,-99.99,tws,2013-12-06 15:19:00,
2013-12-06 10:24:00,39.5,37.6,30.04,NNE,22,15.4,15.4,93,-99.99,,,-99.99,tws,2013-12-06 15:24:00,
2013-12-06 10:29:00,40.0,38.1,30.04,NNE,22,13.3,13.3,92,-99.99,,,-99.99,tws,2013-12-06 15:29:00,
2013-12-06 10:34:00,39.9,37.6,30.03,NE,45,13.0,13.0,91,-99.99,,,-99.99,tws,2013-12-06 15:34:00,
2013-12-06 10:39:00,40.6,38.6,30.05,NNE,22,9.7,9.7,92,-99.99,,,-99.99,tws,2013-12-06 15:39:00,
2013-12-06 10:44:00,39.8,37.8,30.05,NE,45,17.2,17.2,92,-99.99,,,-99.99,tws,2013-12-06 15:44:00,
2013-12-06 10:49:00,39.8,37.8,30.05,North,0,15.9,15.9,92,-99.99,,,-99.99,tws,2013-12-06 15:49:00,
2013-12-06 10:54:00,40.3,38.2,30.06,NNE,22,10.2,10.2,91,-99.99,,,-99.99,tws,2013-12-06 15:54:00,
2013-12-06 10:59:00,40.3,37.8,30.03,NNE,22,16.2,16.2,90,-99.99,,,-99.99,tws,2013-12-06 15:59:00,
2013-12-06 11:04:00,40.6,37.8,30.04,NE,45,13.8,13.8,89,-99.99,,,-99.99,tws,2013-12-06 16:04:00,
2013-12-06 11:09:00,40.5,37.7,30.05,NNE,22,13.2,13.2,89,-99.99,,,-99.99,tws,2013-12-06 16:09:00,
2013-12-06 11:14:00,40.5,37.3,30.05,NNE,22,15.1,15.1,88,-99.99,,,-99.99,tws,2013-12-06 16:14:00,
2013-12-06 11:19:00,40.2,37.4,30.05,NNE,22,18.3,18.3,89,-99.99,,,-99.99,tws,2013-12-06 16:19:00,
2013-12-06 11:24:00,41.0,38.0,30.07,NNE,22,14.9,14.9,88,-99.99,,,-99.99,tws,2013-12-06 16:24:00,
2013-12-06 11:29:00,41.1,38.0,30.07,NNE,22,15.0,15.0,88,-99.99,,,-99.99,tws,2013-12-06 16:29:00,
2013-12-06 11:34:00,41.1,38.1,30.06,NNE,22,12.5,12.5,88,-99.99,,,-99.99,tws,2013-12-06 16:34:00,
2013-12-06 11:39:00,40.9,37.9,30.06,NE,45,13.3,13.3,88,-99.99,,,-99.99,tws,2013-12-06 16:39:00,
2013-12-06 11:44:00,41.4,37.8,30.06,NE,45,16.3,16.3,87,-99.99,,,-99.99,tws,2013-12-06 16:44:00,
2013-12-06 11:49:00,41.4,38.0,30.06,NW,315,12.6,12.6,87,-99.99,,,-99.99,tws,2013-12-06 16:49:00,
2013-12-06 11:54:00,41.6,38.3,30.05,NNE,22,7.3,7.3,87,-99.99,,,-99.99,tws,2013-12-06 16:54:00,
2013-12-06 11:59:00,40.9,37.5,30.05,NW,315,16.1,16.1,87,-99.99,,,-99.99,tws,2013-12-06 16:59:00,
2013-12-06 12:04:00,41.2,37.8,30.04,North,360,10.8,10.8,87,-99.99,,,-99.99,tws,2013-12-06 17:04:00,
2013-12-06 12:09:00,41.4,37.8,30.05,NNE,22,12.8,12.8,86,-99.99,,,-99.99,tws,2013-12-06 17:09:00,
2013-12-06 12:14:00,41.5,37.7,30.05,NE,45,15.5,15.5,86,-99.99,,,-99.99,tws,2013-12-06 17:14:00,
2013-12-06 12:19:00,41.2,37.2,30.05,NNW,337,12.5,12.5,85,-99.99,,,-99.99,tws,2013-12-06 17:19:00,
2013-12-06 12:24:00,41.8,37.1,30.05,NNE,22,10.3,10.3,83,-99.99,,,-99.99,tws,2013-12-06 17:24:00,
2013-12-06 12:29:00,42.0,37.6,30.04,NNE,22,4.7,4.7,83,-99.99,,,-99.99,tws,2013-12-06 17:29:00,
2013-12-06 12:34:00,42.4,38.1,30.04,North,0,7.7,7.7,84,-99.99,,,-99.99,tws,2013-12-06 17:34:00,
2013-12-06 12:39:00,41.9,37.4,30.04,ENE,67,7.2,7.2,83,-99.99,,,-99.99,tws,2013-12-06 17:39:00,
2013-12-06 12:44:00,42.6,38.1,30.03,NE,45,7.9,7.9,84,-99.99,,,-99.99,tws,2013-12-06 17:44:00,
2013-12-06 12:49:00,42.6,37.7,30.04,NNE,22,8.4,8.4,82,-99.99,,,-99.99,tws,2013-12-06 17:49:00,
2013-12-06 12:54:00,42.6,37.3,30.04,NNE,22,4.9,4.9,81,-99.99,,,-99.99,tws,2013-12-06 17:54:00,
2013-12-06 12:59:00,42.7,37.5,30.04,North,0,12.5,12.5,81,-99.99,,,-99.99,tws,2013-12-06 17:59:00,
2013-12-06 13:04:00,42.4,37.0,30.04,NNE,22,10.3,10.3,80,-99.99,,,-99.99,tws,2013-12-06 18:04:00,
2013-12-06 13:09:00,42.0,37.1,30.03,North,0,14.9,14.9,82,-99.99,,,-99.99,tws,2013-12-06 18:09:00,
2013-12-06 13:15:00,42.0,36.4,30.02,NE,45,21.9,21.9,80,-99.99,,,-99.99,tws,2013-12-06 18:15:00,
2013-12-06 13:21:00,42.5,37.0,30.03,NNE,22,9.1,9.1,80,-99.99,,,-99.99,tws,2013-12-06 18:21:00,
2013-12-06 13:26:00,41.8,35.6,30.05,NE,45,12.6,12.6,78,-99.99,,,-99.99,tws,2013-12-06 18:26:00,
2013-12-06 13:31:00,42.8,36.8,30.04,NE,45,5.9,5.9,78,-99.99,,,-99.99,tws,2013-12-06 18:31:00,
2013-12-06 13:36:00,42.4,36.1,30.02,ENE,67,13.5,13.5,78,-99.99,,,-99.99,tws,2013-12-06 18:36:00,
2013-12-06 13:41:00,42.3,36.0,30.02,North,360,15.2,15.2,78,-99.99,,,-99.99,tws,2013-12-06 18:41:00,
2013-12-06 13:46:00,43.0,36.4,30.03,NE,45,9.1,9.1,77,-99.99,,,-99.99,tws,2013-12-06 18:46:00,
2013-12-06 13:51:00,42.5,35.5,30.02,NNE,22,13.9,13.9,76,-99.99,,,-99.99,tws,2013-12-06 18:51:00,
2013-12-06 13:56:00,42.3,35.3,30.01,NNE,22,21.3,21.3,76,-99.99,,,-99.99,tws,2013-12-06 18:56:00,
2013-12-06 14:01:00,42.7,35.7,30.02,North,360,10.8,10.8,76,-99.99,,,-99.99,tws,2013-12-06 19:01:00,
2013-12-06 14:06:00,42.5,35.4,30.02,NNE,22,18.3,18.3,75,-99.99,,,-99.99,tws,2013-12-06 19:06:00,
2013-12-06 14:11:00,42.0,34.3,30.03,NNE,22,15.5,15.5,73,-99.99,,,-99.99,tws,2013-12-06 19:11:00,
2013-12-06 14:16:00,41.2,33.5,30.04,NNE,22,17.8,17.8,73,-99.99,,,-99.99,tws,2013-12-06 19:16:00,
2013-12-06 14:21:00,42.2,34.8,30.04,NE,45,7.0,7.0,74,-99.99,,,-99.99,tws,2013-12-06 19:21:00,
2013-12-06 14:26:00,41.8,34.3,30.02,North,0,12.2,12.2,74,-99.99,,,-99.99,tws,2013-12-06 19:26:00,
2013-12-06 14:31:00,41.7,34.0,30.02,NNE,22,13.4,13.4,73,-99.99,,,-99.99,tws,2013-12-06 19:31:00,
2013-12-06 14:36:00,41.5,34.1,30.01,NE,45,21.6,21.6,74,-99.99,,,-99.99,tws,2013-12-06 19:36:00,
2013-12-06 14:41:00,41.7,33.8,30.02,North,360,14.3,14.3,73,-99.99,,,-99.99,tws,2013-12-06 19:41:00,
2013-12-06 14:46:00,41.5,34.0,30.02,North,0,14.9,14.9,74,-99.99,,,-99.99,tws,2013-12-06 19:46:00,
2013-12-06 14:51:00,41.1,33.6,30.02,NNE,22,14.1,14.1,74,-99.99,,,-99.99,tws,2013-12-06 19:51:00,
2013-12-06 14:56:00,40.8,33.1,30.02,NE,45,19.7,19.7,73,-99.99,,,-99.99,tws,2013-12-06 19:56:00,
2013-12-06 15:01:00,40.9,33.5,30.02,North,0,15.1,15.1,74,-99.99,,,-99.99,tws,2013-12-06 20:01:00,
2013-12-06 15:06:00,40.9,33.6,30.05,ENE,67,9.0,9.0,74,-99.99,,,-99.99,tws,2013-12-06 20:06:00,
2013-12-06 15:11:00,41.4,33.8,30.06,North,0,6.1,6.1,74,-99.99,,,-99.99,tws,2013-12-06 20:11:00,
2013-12-06 15:16:00,40.9,33.5,30.05,NNE,22,16.9,16.9,74,-99.99,,,-99.99,tws,2013-12-06 20:16:00,
2013-12-06 15:21:00,40.9,33.4,30.06,NNE,22,13.5,13.5,74,-99.99,,,-99.99,tws,2013-12-06 20:21:00,
2013-12-06 15:26:00,40.6,33.5,30.07,NE,45,17.8,17.8,75,-99.99,,,-99.99,tws,2013-12-06 20:26:00,
2013-12-06 15:31:00,40.6,33.7,30.07,NE,45,11.6,11.6,76,-99.99,,,-99.99,tws,2013-12-06 20:31:00,
2013-12-06 15:36:00,40.3,33.4,30.07,NE,45,15.7,15.7,76,-99.99,,,-99.99,tws,2013-12-06 20:36:00,
2013-12-06 15:41:00,40.0,33.6,30.06,NNE,22,15.5,15.5,77,-99.99,,,-99.99,tws,2013-12-06 20:41:00,
2013-12-06 15:46:00,40.0,33.8,30.07,NNE,22,11.2,11.2,78,-99.99,,,-99.99,tws,2013-12-06 20:46:00,
2013-12-06 15:51:00,39.7,33.8,30.06,NNE,22,9.5,9.5,79,-99.99,,,-99.99,tws,2013-12-06 20:51:00,
2013-12-06 15:56:00,39.3,33.7,30.06,North,0,13.4,13.4,80,-99.99,,,-99.99,tws,2013-12-06 20:56:00,
2013-12-06 16:01:00,39.1,33.7,30.05,NNE,22,18.9,18.9,80,-99.99,,,-99.99,tws,2013-12-06 21:01:00,
2013-12-06 16:06:00,39.2,34.0,30.06,NNE,22,14.4,14.4,81,-99.99,,,-99.99,tws,2013-12-06 21:06:00,
2013-12-06 16:11:00,39.0,34.2,30.06,NNE,22,13.8,13.8,82,-99.99,,,-99.99,tws,2013-12-06 21:11:00,
2013-12-06 16:16:00,38.7,34.0,30.05,NNE,22,15.5,15.5,83,-99.99,,,-99.99,tws,2013-12-06 21:16:00,
2013-12-06 16:21:00,38.8,34.2,30.05,NE,45,12.0,12.0,83,-99.99,,,-99.99,tws,2013-12-06 21:21:00,
2013-12-06 16:26:00,38.8,34.3,30.05,NNE,22,12.8,12.8,83,-99.99,,,-99.99,tws,2013-12-06 21:26:00,
2013-12-06 16:31:00,38.5,33.9,30.05,NE,45,16.1,16.1,83,-99.99,,,-99.99,tws,2013-12-06 21:31:00,
2013-12-06 16:36:00,38.7,34.2,30.07,North,360,5.2,5.2,83,-99.99,,,-99.99,tws,2013-12-06 21:36:00,
2013-12-06 16:41:00,38.7,34.0,30.07,NNE,22,16.8,16.8,83,-99.99,,,-99.99,tws,2013-12-06 21:41:00,
2013-12-06 16:46:00,38.7,34.0,30.07,NE,45,13.1,13.1,83,-99.99,,,-99.99,tws,2013-12-06 21:46:00,
2013-12-06 16:51:00,38.4,33.9,30.07,NNE,22,12.0,12.0,83,-99.99,,,-99.99,tws,2013-12-06 21:51:00,
2013-12-06 16:56:00,38.8,34.6,30.07,NE,45,4.8,4.8,84,-99.99,,,-99.99,tws,2013-12-06 21:56:00,
2013-12-06 17:01:00,38.5,34.3,30.07,NE,45,9.8,9.8,84,-99.99,,,-99.99,tws,2013-12-06 22:01:00,
2013-12-06 17:06:00,38.1,33.7,30.07,NNE,22,9.5,9.5,84,-99.99,,,-99.99,tws,2013-12-06 22:06:00,
2013-12-06 17:11:00,38.1,34.4,30.08,NE,45,11.5,11.5,86,-99.99,,,-99.99,tws,2013-12-06 22:11:00,
2013-12-06 17:16:00,38.8,35.4,30.09,NNE,22,5.3,5.3,87,-99.99,,,-99.99,tws,2013-12-06 22:16:00,
2013-12-06 17:21:00,38.3,35.2,30.09,NNE,22,8.0,8.0,88,-99.99,,,-99.99,tws,2013-12-06 22:21:00,
2013-12-06 17:26:00,37.8,34.4,30.09,NNE,22,5.5,5.5,87,-99.99,,,-99.99,tws,2013-12-06 22:26:00,
2013-12-06 17:31:00,37.3,34.6,30.09,NNE,22,7.2,7.2,89,-99.99,,,-99.99,tws,2013-12-06 22:31:00,
2013-12-06 17:36:00,37.4,34.7,30.09,NNE,22,11.7,11.7,89,-99.99,,,-99.99,tws,2013-12-06 22:36:00,
2013-12-06 17:41:00,37.1,34.6,30.09,NE,45,10.7,10.7,90,-99.99,,,-99.99,tws,2013-12-06 22:41:00,
2013-12-06 17:46:00,36.7,34.5,30.09,NNE,22,10.1,10.1,91,-99.99,,,-99.99,tws,2013-12-06 22:46:00,
2013-12-06 17:51:00,36.7,34.6,30.09,NNE,22,11.1,11.1,91,-99.99,,,-99.99,tws,2013-12-06 22:51:00,
2013-12-06 17:56:00,36.5,34.4,30.09,NNE,22,8.1,8.1,92,-99.99,,,-99.99,tws,2013-12-06 22:56:00,
2013-12-06 18:01:00,36.9,34.8,30.09,NNE,22,5.8,5.8,92,-99.99,,,-99.99,tws,2013-12-06 23:01:00,
2013-12-06 18:06:00,36.7,34.7,30.09,North,0,5.6,5.6,92,-99.99,,,-99.99,tws,2013-12-06 23:06:00,
2013-12-06 18:11:00,36.7,34.7,30.11,North,360,6.1,6.1,92,-99.99,,,-99.99,tws,2013-12-06 23:11:00,
2013-12-06 18:16:00,36.9,34.7,30.12,North,360,6.4,6.4,91,-99.99,,,-99.99,tws,2013-12-06 23:16:00,
2013-12-06 18:21:00,36.5,34.4,30.12,NNE,22,14.4,14.4,91,-99.99,,,-99.99,tws,2013-12-06 23:21:00,
2013-12-06 18:26:00,36.6,34.6,30.11,North,0,6.8,6.8,92,-99.99,,,-99.99,tws,2013-12-06 23:26:00,
2013-12-06 18:31:00,36.4,34.2,30.11,NE,45,12.7,12.7,91,-99.99,,,-99.99,tws,2013-12-06 23:31:00,
2013-12-06 18:36:00,36.3,34.1,30.11,NE,45,6.9,6.9,91,-99.99,,,-99.99,tws,2013-12-06 23:36:00,
2013-12-06 18:41:00,36.6,34.6,30.11,NE,45,8.8,8.8,92,-99.99,,,-99.99,tws,2013-12-06 23:41:00,
2013-12-06 18:46:00,35.7,33.8,30.10,NNE,22,10.6,10.6,92,-99.99,,,-99.99,tws,2013-12-06 23:46:00,
2013-12-06 18:51:00,36.0,34.0,30.10,NE,45,7.3,7.3,92,-99.99,,,-99.99,tws,2013-12-06 23:51:00,
2013-12-06 18:56:00,36.3,34.3,30.11,North,0,6.7,6.7,92,-99.99,,,-99.99,tws,2013-12-06 23:56:00,
2013-12-06 19:01:00,35.7,33.8,30.11,North,360,7.3,7.3,92,-99.99,,,-99.99,tws,2013-12-07 00:01:00,
2013-12-06 19:06:00,35.6,33.7,30.11,NNE,22,11.7,11.7,92,-99.99,,,-99.99,tws,2013-12-07 00:06:00,
2013-12-06 19:11:00,35.3,33.2,30.11,NNE,22,12.5,12.5,92,-99.99,,,-99.99,tws,2013-12-07 00:11:00,
2013-12-06 19:16:00,35.4,33.4,30.11,North,0,10.1,10.1,92,-99.99,,,-99.99,tws,2013-12-07 00:16:00,
2013-12-06 19:21:00,35.3,33.3,30.10,NNE,22,10.5,10.5,92,-99.99,,,-99.99,tws,2013-12-07 00:21:00,
2013-12-06 19:26:00,35.2,33.0,30.11,North,360,8.3,8.3,91,-99.99,,,-99.99,tws,2013-12-07 00:26:00,
2013-12-06 19:31:00,35.2,33.3,30.09,NE,45,11.5,11.5,92,-99.99,,,-99.99,tws,2013-12-07 00:31:00,
2013-12-06 19:36:00,34.8,33.0,30.09,North,0,11.1,11.1,92,-99.99,,,-99.99,tws,2013-12-07 00:36:00,
2013-12-06 19:41:00,34.7,32.9,30.09,North,360,10.7,10.7,93,-99.99,,,-99.99,tws,2013-12-07 00:41:00,
2013-12-06 19:46:00,35.0,33.2,30.10,North,0,7.2,7.2,93,-99.99,,,-99.99,tws,2013-12-07 00:46:00,
2013-12-06 19:51:00,34.7,33.0,30.11,North,0,10.6,10.6,93,-99.99,,,-99.99,tws,2013-12-07 00:51:00,
2013-12-06 19:56:00,34.4,32.7,30.12,North,0,7.6,7.6,93,-99.99,,,-99.99,tws,2013-12-07 00:56:00,
2013-12-06 20:01:00,34.4,32.8,30.15,NW,315,12.9,12.9,94,-99.99,,,-99.99,tws,2013-12-07 01:01:00,
2013-12-06 20:06:00,34.3,32.7,30.16,NNW,337,7.9,7.9,93,-99.99,,,-99.99,tws,2013-12-07 01:06:00,
2013-12-06 20:11:00,35.1,33.4,30.16,North,360,6.1,6.1,93,-99.99,,,-99.99,tws,2013-12-07 01:11:00,
2013-12-06 20:16:00,34.5,33.0,30.17,NNW,337,10.2,10.2,94,-99.99,,,-99.99,tws,2013-12-07 01:16:00,
2013-12-06 20:21:00,34.4,32.9,30.17,North,0,10.1,10.1,94,-99.99,,,-99.99,tws,2013-12-07 01:21:00,
2013-12-06 20:26:00,34.3,32.5,30.17,NNW,337,8.4,8.4,93,-99.99,,,-99.99,tws,2013-12-07 01:26:00,
2013-12-06 20:31:00,33.8,32.1,30.18,North,0,13.8,13.8,93,-99.99,,,-99.99,tws,2013-12-07 01:31:00,
2013-12-06 20:36:00,34.2,32.2,30.18,North,0,6.5,6.5,92,-99.99,,,-99.99,tws,2013-12-07 01:36:00,
2013-12-06 20:41:00,33.7,31.8,30.18,NNE,22,12.0,12.0,92,-99.99,,,-99.99,tws,2013-12-07 01:41:00,
2013-12-06 20:46:00,32.5,29.9,30.17,North,360,19.3,19.3,90,-99.99,,,-99.99,tws,2013-12-07 01:46:00,
2013-12-06 20:51:00,32.4,30.7,30.16,NE,45,15.2,15.2,93,-99.99,,,-99.99,tws,2013-12-07 01:51:00,
2013-12-06 20:56:00,32.4,31.2,30.16,North,360,10.2,10.2,95,-99.99,,,-99.99,tws,2013-12-07 01:56:00,
2013-12-06 21:01:00,32.0,31.0,30.14,North,360,15.8,15.8,96,-99.99,,,-99.99,tws,2013-12-07 02:01:00,
2013-12-06 21:06:00,32.1,31.4,30.12,NNE,22,10.0,10.0,96,-99.99,,,-99.99,tws,2013-12-07 02:06:00,
2013-12-06 21:11:00,31.6,30.9,30.11,NE,45,14.2,14.2,97,-99.99,,,-99.99,tws,2013-12-07 02:11:00,
2013-12-06 21:16:00,32.0,31.4,30.11,North,360,6.8,6.8,97,-99.99,,,-99.99,tws,2013-12-07 02:16:00,
2013-12-06 21:21:00,31.8,31.3,30.12,NE,45,5.6,5.6,97,-99.99,,,-99.99,tws,2013-12-07 02:21:00,
2013-12-06 21:26:00,31.7,31.2,30.11,NNE,22,9.9,9.9,98,-99.99,,,-99.99,tws,2013-12-07 02:26:00,
2013-12-06 21:31:00,31.9,31.4,30.12,NE,45,7.9,7.9,98,-99.99,,,-99.99,tws,2013-12-07 02:31:00,
2013-12-06 21:36:00,32.7,32.1,30.14,NE,45,0.0,0.0,97,-99.99,,,-99.99,tws,2013-12-07 02:36:00,
2013-12-06 21:41:00,32.6,31.8,30.14,NE,45,3.6,3.6,97,-99.99,,,-99.99,tws,2013-12-07 02:41:00,
2013-12-06 21:46:00,33.2,32.4,30.15,ENE,67,1.1,1.1,97,-99.99,,,-99.99,tws,2013-12-07 02:46:00,
2013-12-06 21:51:00,33.5,32.6,30.15,ESE,112,0.3,0.3,96,-99.99,,,-99.99,tws,2013-12-07 02:51:00,
2013-12-06 21:56:00,33.2,32.1,30.16,ENE,67,1.2,1.2,96,-99.99,,,-99.99,tws,2013-12-07 02:56:00,
2013-12-06 22:01:00,32.7,31.8,30.16,NE,45,0.1,0.1,96,-99.99,,,-99.99,tws,2013-12-07 03:01:00,
2013-12-06 22:06:00,33.2,32.3,30.16,NE,45,1.5,1.5,96,-99.99,,,-99.99,tws,2013-12-07 03:06:00,
2013-12-06 22:11:00,33.0,32.1,30.16,ENE,67,0.4,0.4,96,-99.99,,,-99.99,tws,2013-12-07 03:11:00,
2013-12-06 22:16:00,32.9,32.0,30.16,ENE,67,0.0,0.0,96,-99.99,,,-99.99,tws,2013-12-07 03:16:00,
2013-12-06 22:21:00,33.0,32.2,30.16,NE,45,0.0,0.0,96,-99.99,,,-99.99,tws,2013-12-07 03:21:00,
2013-12-06 22:26:00,33.3,32.5,30.16,ESE,112,0.1,0.1,96,-99.99,,,-99.99,tws,2013-12-07 03:26:00,
2013-12-06 22:31:00,32.4,31.7,30.16,NE,45,6.9,6.9,97,-99.99,,,-99.99,tws,2013-12-07 03:31:00,
2013-12-06 22:36:00,32.1,31.7,30.16,NNE,22,5.2,5.2,98,-99.99,,,-99.99,tws,2013-12-07 03:36:00,
2013-12-06 22:41:00,32.1,31.7,30.16,NNE,22,5.7,5.7,98,-99.99,,,-99.99,tws,2013-12-07 03:41:00,
2013-12-06 22:46:00,32.0,31.7,30.16,NNE,22,10.4,10.4,98,-99.99,,,-99.99,tws,2013-12-07 03:46:00,
2013-12-06 22:51:00,31.9,31.6,30.16,North,0,6.5,6.5,98,-99.99,,,-99.99,tws,2013-12-07 03:51:00,
2013-12-06 22:56:00,32.1,31.9,30.17,NNE,22,5.9,5.9,99,-99.99,,,-99.99,tws,2013-12-07 03:56:00,
2013-12-06 23:01:00,31.9,31.8,30.17,NNE,22,10.1,10.1,99,-99.99,,,-99.99,tws,2013-12-07 04:01:00,
2013-12-06 23:06:00,31.9,31.8,30.16,NNE,22,9.2,9.2,99,-99.99,,,-99.99,tws,2013-12-07 04:06:00,
2013-12-06 23:11:00,31.7,31.7,30.16,NNW,337,6.5,6.5,99,-99.99,,,-99.99,tws,2013-12-07 04:11:00,
2013-12-06 23:16:00,31.6,31.5,30.17,North,0,10.2,10.2,99,-99.99,,,-99.99,tws,2013-12-07 04:16:00,
2013-12-06 23:21:00,32.0,31.9,30.17,North,360,4.8,4.8,99,-99.99,,,-99.99,tws,2013-12-07 04:21:00,
2013-12-06 23:26:00,32.0,31.9,30.17,NW,315,6.7,6.7,99,-99.99,,,-99.99,tws,2013-12-07 04:26:00,
2013-12-06 23:31:00,31.6,31.5,30.17,North,360,8.4,8.4,99,-99.99,,,-99.99,tws,2013-12-07 04:31:00,
2013-12-06 23:36:00,31.8,31.5,30.17,NNE,22,9.5,9.5,98,-99.99,,,-99.99,tws,2013-12-07 04:36:00,
2013-12-06 23:41:00,31.5,31.4,30.18,NE,45,5.4,5.4,99,-99.99,,,-99.99,tws,2013-12-07 04:41:00,
2013-12-06 23:46:00,31.9,31.8,30.16,NNE,22,7.1,7.1,99,-99.99,,,-99.99,tws,2013-12-07 04:46:00,
2013-12-06 23:51:00,31.8,31.7,30.16,NE,45,6.8,6.8,99,-99.99,,,-99.99,tws,2013-12-07 04:51:00,
2013-12-06 23:56:00,31.7,31.5,30.16,NNW,337,8.6,8.6,99,-99.99,,,-99.99,tws,2013-12-07 04:56:00,